[[{"header":{"parameterUnit":"m.s-1","parameterCategory":1,"la1":30.2991,"la2":30.254,"lo1":-89.0895,"lo2":-89.0444,"dy":0.0017,"dx":0.0017,"nx":28,"ny":28,"refTime":"2025-11-24T03:00:00:Z","depth":0,"parameterNumber":2,"parameterNumberName":"U-component_of_WINDS"},"data":[0,0,0,0,0,0,0,0,0,0,0,0,0,0,0,0,0,0,0,0,0,0,0,0,0,0,0,0,0,0,0,0,0,0,0,0,0,0,0,0,0,0,0,0,0,0,0,0,0,0,0,0,0,0,0,0,0,0,-2.0444,-2.0444,0,-2.0472,-2.0472,-2.0473,-2.0414,-2.0412,-2.041,-2.0408,-2.0439,-2.0442,-2.0444,0,0,0,0,0,0,0,0,0,0,0,0,0,-2.0342,-2.0344,-2.0444,-2.0444,-2.0445,-2.0472,-2.0472,-2.0473,-2.0414,-2.0412,-2.041,-2.0407,-2.0438,-2.0441,-2.0444,0,0,0,0,0,0,0,0,0,0,0,0,0,-2.038,-2.0345,-2.0444,-2.0419,-2.0417,-2.0472,-2.0472,-2.0473,-2.0415,-2.0412,-2.0409,-2.0406,-2.0437,-2.0441,-2.0445,-2.0527,0,0,-2.0457,-2.0459,0,0,0,0,0,0,0,0,-2.0378,-2.0384,-2.0422,-2.0421,-2.0418,-2.0436,-2.0448,-2.0491,-2.0415,-2.0416,-2.0408,-2.0405,-2.0441,-2.0444,-2.0456,-2.0528,-2.0529,-2.0457,-2.046,-2.0461,-2.0462,0,0,0,0,0,0,0,-2.0375,-2.0382,-2.0455,-2.0423,-2.0421,-2.0407,-2.0409,-2.0456,-2.0444,-2.0415,-2.0411,-2.0415,-2.0439,-2.0452,-2.0456,-2.053,-2.0457,-2.0461,-2.0463,-2.0464,-2.0671,-2.0674,0,0,0,0,0,0,-2.0376,-2.0381,-2.0454,-2.0456,-2.0391,-2.0411,-2.0413,-2.0434,-2.0443,-2.0442,-2.0418,-2.0412,-2.0447,-2.0452,-2.0457,-2.0554,-2.0461,-2.0465,-2.0467,-2.0668,-2.0672,-2.0675,0,0,0,0,0,0,-2.0374,-2.0383,-2.0453,-2.0417,-2.0425,-2.0416,-2.0439,-2.0436,-2.0448,-2.0445,-2.0443,-2.0433,-2.0445,-2.0451,-2.051,-2.0554,-2.0467,-2.047,-2.0665,-2.0669,-2.0674,-2.0748,0,0,0,0,0,0,-2.0371,-2.0382,-2.0413,-2.0418,-2.0427,-2.0505,-2.0442,-2.0438,-2.0455,-2.0449,-2.0459,-2.0458,-2.0443,-2.0504,-2.0514,-2.0558,-2.0473,-2.0661,-2.0667,-2.0672,-2.0741,-2.0754,-2.0766,0,0,0,0,0,-2.0368,-2.0433,-2.0415,-2.0424,-2.0465,-2.0508,-2.0513,-2.0494,-2.0459,-2.049,-2.0488,-2.0457,-2.0548,-2.0511,-2.0521,-2.0567,-2.0658,-2.0665,-2.0672,-2.0736,-2.0752,-2.0765,0,0,0,0,0,0,-2.0433,-2.0433,-2.0413,-2.0481,-2.0495,-2.0497,-2.0536,-2.0511,-2.0536,-2.0528,-2.0505,-2.0508,-2.0571,-2.0575,-2.0533,-2.0647,-2.0597,-2.0606,-2.0642,-2.0657,-2.0669,-2.0667,-2.0476,0,0,0,0,0,-2.0456,-2.049,-2.0488,-2.0549,-2.0556,-2.0545,-2.0563,-2.0547,-2.0561,-2.0566,-2.0568,-2.0583,-2.0615,-2.0636,-2.0665,-2.0741,-2.0743,-2.0778,-2.079,-2.08,-2.0809,-2.0851,-2.0866,-2.0699,-2.0699,-2.0699,0,0,-2.0502,-2.0506,-2.0529,-2.0562,-2.057,-2.0607,-2.055,-2.0591,-2.0618,-2.0573,-2.0628,-2.063,-2.0645,-2.0713,-2.0743,-2.0718,-2.0856,-2.0809,-2.0817,-2.0821,-2.086,-2.0875,-2.089,-2.0704,-2.0703,-2.0702,0,0,-2.0606,-2.0612,-2.0664,-2.0674,-2.0687,-2.0679,-2.0692,-2.0699,-2.0698,-2.0753,-2.072,-2.0752,-2.0807,-2.0819,-2.0833,-2.0942,-2.0915,-2.0952,-2.1016,-2.1057,-2.107,-2.1082,-2.1121,-2.1136,-2.0961,-2.0961,-2.0961,0,-2.0662,-2.0715,-2.0694,-2.0737,-2.0753,-2.0713,-2.0765,-2.0776,-2.0799,-2.0811,-2.0783,-2.0851,-2.0858,-2.0929,-2.0956,-2.0968,-2.0982,-2.0951,-2.107,-2.1081,-2.1092,-2.1129,-2.1144,-2.0965,-2.0965,-2.0964,-2.0964,0,-2.0785,-2.0822,-2.0862,-2.0885,-2.0905,-2.0953,-2.0939,-2.0963,-2.0946,-2.0941,-2.0998,-2.1006,-2.1036,-2.1051,-2.1035,-2.112,-2.1104,-2.1073,-2.1023,-2.1112,-2.1147,-2.1162,-2.0972,-2.097,-2.0969,-2.0968,0,0,-2.093,-2.094,-2.0955,-2.0965,-2.0978,-2.1007,-2.1054,-2.1082,-2.1103,-2.1121,-2.116,-2.1207,-2.1179,-2.1194,-2.1179,-2.1215,-2.1303,-2.118,-2.118,-2.1203,-2.1398,-2.1421,-2.1438,-2.1285,-2.1288,-2.129,-2.1397,0,-2.1033,-2.1112,-2.1095,-2.1173,-2.1208,-2.1171,-2.1212,-2.1224,-2.1222,-2.1252,-2.1249,-2.1284,-2.1243,-2.1252,-2.1286,-2.1285,-2.1342,-2.1277,-2.1322,-2.1324,-2.132,-2.1456,-2.1481,-2.1582,-2.141,-2.1412,-2.1414,0,-2.1164,-2.1186,-2.1268,-2.1275,-2.1289,-2.1326,-2.1352,-2.138,-2.1395,-2.139,-2.1408,-2.1386,-2.1434,-2.1383,-2.1448,-2.1404,-2.1422,-2.1424,-2.1428,-2.1432,-2.1375,-2.1464,-2.1613,-2.1629,-2.1435,-2.1434,-2.1432,0,-2.1262,-2.1312,-2.1368,-2.1378,-2.1388,-2.1415,-2.142,-2.1432,-2.145,-2.1473,-2.1485,-2.1513,-2.1529,-2.1552,-2.1539,-2.1503,-2.1607,-2.1555,-2.1606,-2.1606,-2.1629,-2.1628,-2.1784,-2.164,-2.164,-2.164,-2.1639,0,-2.1379,-2.1431,-2.1412,-2.1447,-2.1504,-2.1484,-2.1541,-2.1543,-2.1553,-2.1588,-2.1558,-2.1591,-2.1572,-2.1604,-2.1594,-2.1651,-2.1658,-2.1656,-2.1653,-2.1659,-2.166,-2.1671,-2.1663,-2.1644,-2.1643,-2.1642,-2.1641,0,-2.1499,-2.1488,-2.1547,-2.1552,-2.1554,-2.1596,-2.1601,-2.1633,-2.1629,-2.1673,-2.1682,-2.1676,-2.1712,-2.1701,-2.1741,-2.1734,-2.1806,-2.1794,-2.1801,-2.1798,-2.185,-2.1845,-2.2018,-2.204,-2.1882,-2.1884,-2.1885,0,-2.1574,-2.1613,-2.1622,-2.1643,-2.1651,-2.1685,-2.1704,-2.1686,-2.1707,-2.1726,-2.1757,-2.1791,-2.1817,-2.1877,-2.1876,-2.1907,-2.1895,-2.1954,-2.1899,-2.1905,-2.1897,-2.1895,-2.1899,-2.1964,-2.1966,-2.1968,-2.1969,0,-2.1709,-2.1702,-2.173,-2.1758,-2.1781,-2.1801,-2.1819,-2.1838,-2.1821,-2.1847,-2.1884,-2.1904,-2.1944,-2.1979,-2.2007,-2.2013,-2.1989,-2.1986,-2.1999,-2.2006,-2.2009,-2.2009,-2.1831,-2.1982,-2.1981,-2.198,-2.1979,-2.1979,-2.1809,-2.1842,-2.1854,-2.1887,-2.1898,-2.1916,-2.1947,-2.1946,-2.1976,-2.2007,-2.1995,-2.2038,-2.2052,-2.2087,-2.2097,-2.2131,-2.2109,-2.2128,-2.2133,-2.2138,-2.2145,-2.2004,-2.2136,-2.2136,-2.2135,-2.2135,-2.2135,0,-2.1943,-2.1949,-2.1979,-2.2005,-2.2031,-2.2005,-2.2024,-2.2048,-2.2086,-2.2101,-2.2127,-2.217,-2.2203,-2.2205,-2.2237,-2.2263,-2.2253,-2.2272,-2.227,-2.2272,-2.2163,-2.2148,-2.228,-2.228,-2.228,-2.228,-2.228,-2.228,-2.2016,-2.2071,-2.2066,-2.2127,-2.2132,-2.2173,-2.2186,-2.2203,-2.2214,-2.2263,-2.2291,-2.2292,-2.2302,-2.2334,-2.2364,-2.2364,-2.2377,-2.2401,-2.2397,-2.2294,-2.228,-2.2266,-2.2252,-2.2404,-2.2404,-2.2503,-2.2504,-2.2505]},{"header":{"parameterUnit":"m.s-1","parameterCategory":1,"la1":30.2991,"la2":30.254,"lo1":-89.0895,"lo2":-89.0444,"dy":0.0017,"dx":0.0017,"nx":28,"ny":28,"refTime":"2025-11-24T03:00:00:Z","depth":0,"parameterNumber":3,"parameterNumberName":"V-component_of_WINDS"},"data":[0,0,0,0,0,0,0,0,0,0,0,0,0,0,0,0,0,0,0,0,0,0,0,0,0,0,0,0,0,0,0,0,0,0,0,0,0,0,0,0,0,0,0,0,0,0,0,0,0,0,0,0,0,0,0,0,0,0,0.0837,0.0837,0,0.0834,0.0834,0.0834,0.0826,0.0826,0.0826,0.0826,0.0823,0.0823,0.0823,0,0,0,0,0,0,0,0,0,0,0,0,0,0.0836,0.0836,0.0837,0.0837,0.0837,0.0834,0.0834,0.0834,0.0827,0.0826,0.0826,0.0826,0.0823,0.0823,0.0823,0,0,0,0,0,0,0,0,0,0,0,0,0,0.0835,0.0836,0.0837,0.0833,0.0832,0.0834,0.0834,0.0834,0.0827,0.0826,0.0826,0.0826,0.0823,0.0823,0.0823,0.0828,0,0,0.0823,0.0823,0,0,0,0,0,0,0,0,0.0835,0.0835,0.0833,0.0833,0.0832,0.083,0.0832,0.0832,0.0827,0.0829,0.0826,0.0826,0.0825,0.0825,0.0825,0.0828,0.0828,0.0823,0.0823,0.0823,0.0823,0,0,0,0,0,0,0,0.0835,0.0835,0.0836,0.0833,0.0833,0.0831,0.0831,0.0832,0.0828,0.0829,0.0828,0.0828,0.0825,0.0825,0.0825,0.0828,0.0823,0.0823,0.0823,0.0823,0.0836,0.0836,0,0,0,0,0,0,0.0836,0.0835,0.0836,0.0836,0.0833,0.0831,0.0831,0.0831,0.0828,0.0828,0.0828,0.0827,0.0825,0.0825,0.0825,0.0832,0.0823,0.0823,0.0823,0.0835,0.0836,0.0836,0,0,0,0,0,0,0.0836,0.0836,0.0836,0.0835,0.0835,0.0832,0.0832,0.0831,0.0831,0.0828,0.0827,0.0829,0.0825,0.0825,0.0828,0.0831,0.0823,0.0823,0.0835,0.0836,0.0836,0.0845,0,0,0,0,0,0,0.0836,0.0836,0.0838,0.0835,0.0835,0.0839,0.0832,0.0831,0.0832,0.0831,0.0828,0.0828,0.0825,0.0828,0.0828,0.0831,0.0824,0.0835,0.0835,0.0836,0.0844,0.0845,0.0847,0,0,0,0,0,0.0836,0.084,0.0838,0.0838,0.0837,0.0839,0.0839,0.0835,0.0832,0.0834,0.0832,0.0828,0.0831,0.0828,0.0828,0.0832,0.0834,0.0835,0.0836,0.0844,0.0845,0.0846,0,0,0,0,0,0,0.0843,0.084,0.0837,0.0841,0.084,0.0838,0.084,0.0837,0.0837,0.0836,0.0832,0.0831,0.0835,0.0833,0.083,0.0837,0.0832,0.0833,0.0838,0.084,0.0841,0.0841,0.0824,0,0,0,0,0,0.0845,0.0846,0.0843,0.0847,0.0847,0.0843,0.0844,0.0841,0.084,0.084,0.0838,0.0837,0.0838,0.0839,0.0839,0.0844,0.0844,0.0846,0.0848,0.0849,0.0849,0.0853,0.0854,0.0838,0.0838,0.0838,0,0,0.0849,0.0847,0.0848,0.0848,0.0847,0.0849,0.0843,0.0845,0.0846,0.084,0.0843,0.0842,0.084,0.0844,0.0846,0.0843,0.0854,0.0849,0.085,0.085,0.0853,0.0855,0.0856,0.0838,0.0838,0.0838,0,0,0.0857,0.0856,0.0859,0.0859,0.0858,0.0856,0.0857,0.0854,0.0853,0.0856,0.0852,0.0853,0.0855,0.0854,0.0854,0.0863,0.086,0.0864,0.087,0.0873,0.0874,0.0876,0.088,0.0881,0.0864,0.0864,0.0864,0,0.0863,0.0865,0.0861,0.0864,0.0864,0.0859,0.0862,0.0862,0.0861,0.0862,0.0859,0.0861,0.0859,0.0864,0.0866,0.0866,0.0867,0.0864,0.0875,0.0876,0.0877,0.088,0.0882,0.0865,0.0865,0.0865,0.0865,0,0.0872,0.0874,0.0876,0.0876,0.0877,0.088,0.0877,0.0878,0.0875,0.0874,0.0877,0.0875,0.0876,0.0876,0.0874,0.0881,0.0879,0.0875,0.087,0.0879,0.0882,0.0884,0.0865,0.0865,0.0865,0.0865,0,0,0.0885,0.0883,0.0884,0.0884,0.0883,0.0884,0.0887,0.0888,0.0889,0.0889,0.0892,0.0893,0.089,0.089,0.0887,0.089,0.0898,0.0886,0.0886,0.0889,0.0907,0.091,0.0912,0.0896,0.0896,0.0896,0.0907,0,0.0893,0.0898,0.0895,0.0901,0.0903,0.0898,0.0901,0.0901,0.0899,0.0901,0.0899,0.0901,0.0896,0.0896,0.0898,0.0897,0.0902,0.0896,0.0899,0.0899,0.09,0.0913,0.0916,0.0926,0.0908,0.0908,0.0909,0,0.0904,0.0905,0.0911,0.091,0.091,0.0913,0.0914,0.0915,0.0915,0.0914,0.0914,0.0911,0.0914,0.0909,0.0913,0.0909,0.091,0.091,0.091,0.091,0.0905,0.0915,0.0929,0.0931,0.0911,0.091,0.091,0,0.0914,0.0916,0.092,0.092,0.0919,0.0921,0.0921,0.092,0.0921,0.0922,0.0923,0.0923,0.0924,0.0925,0.0922,0.0919,0.0927,0.0922,0.0927,0.0927,0.0929,0.0929,0.0945,0.0929,0.0929,0.0929,0.0929,0,0.0924,0.0928,0.0924,0.0927,0.0931,0.0928,0.0933,0.0932,0.0931,0.0934,0.093,0.0932,0.0928,0.093,0.0928,0.0933,0.0933,0.0932,0.0931,0.0933,0.0933,0.0934,0.0933,0.0929,0.0929,0.0929,0.0929,0,0.0935,0.0933,0.0938,0.0936,0.0936,0.094,0.0939,0.0941,0.094,0.0943,0.0943,0.0941,0.0943,0.0941,0.0943,0.0941,0.0948,0.0946,0.0948,0.0948,0.0953,0.0953,0.097,0.0973,0.0955,0.0955,0.0955,0,0.0942,0.0945,0.0945,0.0946,0.0946,0.0949,0.095,0.0947,0.0948,0.0949,0.0951,0.0953,0.0955,0.0959,0.0957,0.0959,0.0957,0.0963,0.0957,0.0959,0.0958,0.0958,0.0959,0.0965,0.0965,0.0965,0.0965,0,0.0955,0.0954,0.0956,0.0958,0.0959,0.0961,0.0961,0.0963,0.096,0.0961,0.0964,0.0965,0.0968,0.097,0.0971,0.0971,0.0968,0.0967,0.0968,0.097,0.0971,0.0972,0.0952,0.0967,0.0966,0.0966,0.0966,0.0966,0.0965,0.0968,0.0968,0.0971,0.0971,0.0972,0.0975,0.0974,0.0976,0.0978,0.0976,0.0979,0.0979,0.0981,0.0981,0.0984,0.0981,0.0983,0.0984,0.0984,0.0986,0.0971,0.0984,0.0984,0.0984,0.0984,0.0984,0,0.0978,0.0978,0.0981,0.0982,0.0984,0.0981,0.0982,0.0984,0.0987,0.0988,0.099,0.0993,0.0996,0.0994,0.0997,0.0999,0.0998,0.1,0.1,0.1,0.0987,0.0986,0.1001,0.1001,0.1001,0.1001,0.1001,0.1001,0.0986,0.099,0.099,0.0995,0.0995,0.0998,0.0999,0.1,0.1001,0.1005,0.1007,0.1007,0.1007,0.1009,0.1011,0.1011,0.1012,0.1015,0.1014,0.1002,0.1001,0.0999,0.0998,0.1015,0.1015,0.1027,0.1027,0.1027]}]]